[Date Prev][Date Next][Thread Prev][Thread Next] - [Date Index][Thread Index][Author Index]
2 Line ISS Keps 3-16
- Subject: [sarex] 2 Line ISS Keps 3-16
- From: "Dave Larsen PhD" <doc@xxxxxxxxxxx>
- Date: Tue, 15 Mar 2005 19:26:19 -0800
ISS
1 25544U 98067A 05075.02807006 .00009785 00000-0 81316-4 0 229
2 25544 051.6466 017.5097 0003562 200.9300 257.9517 15.70911644361036
----
Via the sarex mailing list at AMSAT.ORG courtesy of AMSAT-NA.
To unsubscribe, send "unsubscribe sarex" to Majordomo@amsat.org
AMSAT Home